Location: ???????????
(54.5822°N, 39.1075°E)
Time: 04:07:48
(UTC+00:00)

Meteor 1-11 Rocket - Pass Details

Date: 19 May 2025
Orbit: 829 x 915 km, 81.2° (Epoch: 15 June)

Event Time Altitude Azimuth Distance (km) Brightness Sun altitude
Rises 19:16:03 0° 347° (NNW) 3,393 8.5 -10.9°
Reaches altitude 10° 19:18:30 10° 350° (N) 2,452 7.4 -11.1°
Maximum altitude 19:23:59 63° 72° (ENE) 927 3.9 -11.4°
Enters shadow 19:28:25 16° 151° (SSE) 2,054 5.0 -11.7°
